IRIDIUM 33 DEB, 34487

Orbit data source: Space-Track

IRIDIUM 33 DEB, 34487 is space debris in LEO originally from a launch on Sun, 14 Sep 1997 UTC launched from the Tyuratam Missile And Space Complex (TTMTR). The debris from Iridium 33, an American commercial communications satellite, has been tracked extensively since its accidental collision with the defunct Russian satellite Cosmos 2251 in 2009. This event, occurring at high speed in low Earth orbit (LEO), generated thousands of pieces of space debris, significantly increasing the risk of further collisions. The Iridium 33 debris cloud has impacted space traffic management and orbital debris mitigation strategies, making it a subject of ongoing study in space situational awareness.

Loading next visibility...
Identifier
34487, 1997-051GC
Orbit
LEO
Country
Flag of USUS
Related business
Manufacturer
Unknown
Mission
Spacecraft
Bus & Motor
Unknown
Mass
Unknown
Launch date (UTC)
1997-09-14 (29 years ago)
Launch vehicle
Unknown
Launch site
Tyuratam Missile And Space Complex (TTMTR)
Object type
Payload
Rocket body
Debris
Shape & HBR
Unknown shape, 0.1 m
Radar Cross Section
Medium (>0.1 m² and <1 m²)

Expand to show TLE details & history
Last TLE update: 2 days ago

TLE from 2 days ago
0 IRIDIUM 33 DEB
1 34487U 97051GC  26168.08632600  .00000513  00000-0  14523-3 0  9993
2 34487  86.3424 292.1405 0029185 231.4372 303.0015 14.43489291909369
Epoch: 2026-06-17T02:04Z
TLE epoch observation values (Epoch: 2026-06-17T02:04:18.566Z)
Latitude
5.74656°
Longitude
175.34748°
Altitude
738.208 km
Speed
7.492 km/s
True Right ascension
07h 27m 05s
True Declination
5° 42' 44"
Sunlit
Object was in daylight at epoch
Visualization orbit readout
Latitude
Unknown
Longitude
Unknown
Altitude
Unknown
Speed
Unknown
Apparent Right ascension
Unknown
Apparent Declination
Unknown
Sunlit
N/A
Visualization observer readout
Local Sidereal Time
05:49:26
Azimuth
Unknown
Elevation
Unknown
Doppler factor
Unknown
Orbital elements
Apogee altitude
764.731 km
Perigee altitude
723.16 km
Semi-major axis
7,122.083 km
Eccentricity
0.00292
Inclination
86.3424°
RAAN
292.1405°
Arg. of periapsis
231.4372°
True anomaly
302.72047°
Mean anomaly
303.0015°
Eccentric anomaly
302.86104°
Mean motion
3.61104 °/min
Orbital period
99.69 mins
BSTAR
0.00014523
Loading maneuver chart data...
Computing Atmospheric mass density...

Documentation

Showing up to 5 results
|